Regional Weather Roundup
Issued by NWS Bismarck, ND

Home | Current Version | Previous Version | Text Only | Print | Product List | Glossary On
Versions: 1 2 3 4 5 6 7 8 9 10 11 12 13 14 15 16 17 18 19 20 21 22 23 24 25 26 27 28 29 30 31 32 33 34 35 36 37 38 39 40 41 42 43 44 45 46 47 48 49 50
000
ASUS43 KBIS 282010
RWRBIS

NWR BROADCAST TEXT
NATIONAL WEATHER SERVICE BISMARCK ND
300 PM CDT FRI APR 28 2017

NOTE: "FAIR" INDICATES FEW OR NO CLOUDS BELOW 12,000 FEET WITH NO
SIGNIFICANT WEATHER AND/OR OBSTRUCTIONS TO VISIBILITY.


CITY           SKY/WX    TMP DP  RH WIND       PRES   REMARKS
WILLISTON      FAIR      56  23  27 S6        30.05S
MINOT          FAIR      55  13  18 NW9G20    30.05R
MINOT AFB      FAIR      53  16  23 NW5       30.04S
BISMARCK       FAIR      56  11  16 N15       30.05R
DICKINSON      FAIR      50  19  29 CALM      30.02R
GARRISON         N/A     52  13  21 VRB5      30.05R
HETTINGER ARPT FAIR      51  25  36 E8        30.03R
JAMESTOWN      FAIR      53  21  28 N14       30.02R
HAZEN          FAIR      52   9  17 VRB6G14   30.08R
LINTON           N/A     54  16  22 NE9G18    30.05R
MANDAN         FAIR      52  10  19 NE10G18   30.05R
STANLEY        FAIR      52  19  28 CALM      30.07R
TIOGA          FAIR      52  14  22 NW8       30.06S
WATFORD CITY   FAIR      54  25  32 VRB6G13   30.04S
$$

CITY           SKY/WX    TMP DP  RH WIND       PRES   REMARKS
GRAND FORKS    FAIR      53  27  36 N21G26    30.01R
GRAND FORKS AF FAIR      51  23  32 N15G23    30.02R
DEVILS LAKE    FAIR      52  13  21 NW18      30.03R
FARGO          FAIR      52  24  33 N18       30.01R
CAVALIER       FAIR      50  16  25 NW20      30.01S
GRAFTON        FAIR      52  21  30 N21       30.02S
GWINNER        CLEAR     52  25  35 MISG      30.02R
LANGDON        FAIR      54  10  17 N20       30.01S
ROLLA          FAIR      52  12  20 N16       30.04S
$$

CITY           SKY/WX    TMP DP  RH WIND       PRES   REMARKS
ABERDEEN       FAIR      52  17  25 NE15      30.02R
MOBRIDGE       FAIR      56  14  19 NE10      30.00R
BUFFALO          N/A     50  23  34 NE14      29.96R
RAPID CITY     PTSUNNY   46  27  47 NE14G22   29.99R
GLASGOW        FAIR      55  21  26 W6        30.03R
SIDNEY         FAIR      54  19  25 SW3       30.05R
WOLF POINT     PTSUNNY   58  18  21 E5        30.04R
GLENDIVE       FAIR      51  22  31 CALM      30.04S
MILES CITY     FAIR      52  25  35 E7        30.04R
BAKER          FAIR      52  21  29 SE12      30.03R
$$

CITY           SKY/WX    TMP DP  RH WIND       PRES   REMARKS
BILLINGS       CLOUDY    46  32  58 NE12G18   30.03R
GREAT FALLS    LGT RAIN  42  35  76 S6        30.07R
REGINA         PTSUNNY   57  19  23 SW6G18    30.02R
ESTEVAN        CLOUDY    54  18  24 VRB5      30.06R
$$




USA.gov is the U.S. government's official web portal to all federal, state and local government web resources and services.